Location: Mount Kobau Star Party
(49.1167°N, 119.7333°W)
Time: 05:01:23
(UTC-08:00)

Amateur Radio Satellites - All Passes

Search period start: 16 December 2017 04:31
Search period end: 17 December 2017 04:31
Location: Mount Kobau Star Party, 49.1167°N, 119.7333°W

Satellite Date Start Highest point End Downlink Frequencies (MHz)
Time Altitude Azimuth
FO-29 16 Dec 04:35:28 04:37:21 11° 38° (NE) 04:39:12 435.910
CUBESAT XI-V 16 Dec 04:46:14 04:48:50 15° 272° (W) 04:51:28 437.345
KKS-1 16 Dec 04:53:31 04:57:46 43° 261° (W) 05:02:02 437.445
BEESAT 2 16 Dec 04:58:53 05:02:55 70° 234° (SW) 05:06:53 435.950
CUTE-I 16 Dec 05:02:02 05:04:55 15° 87° (E) 05:07:47 437.470
ITAMSAT 1 16 Dec 05:02:34 05:07:13 34° 296° (WNW) 05:11:50 435.822/435.867
PCSat 16 Dec 05:09:32 05:10:17 10° 259° (W) 05:11:03 145.827
HO-68 16 Dec 05:13:30 05:15:14 11° 81° (E) 05:16:56 435.675
LilacSat-2 16 Dec 05:16:01 05:18:59 21° 92° (E) 05:21:56 437.200
NUDT-PHONESAT 16 Dec 05:25:07 05:27:33 16° 91° (E) 05:29:56 437.300
XW-2D 16 Dec 05:27:45 05:31:01 26° 94° (E) 05:34:15 145.860 - 145.880
DOVE 4 16 Dec 05:27:59 05:32:29 64° 287° (WNW) 05:36:42 437.250
STARS 16 Dec 05:31:35 05:35:45 42° 261° (W) 05:39:56 437.465
KAITUO 1B 16 Dec 05:31:40 05:34:33 20° 92° (E) 05:37:24 145.475/437.950
M-CUBED/EXP-1 PRIME 16 Dec 05:39:11 05:41:58 16° 309° (NW) 05:44:41 437.505
XW-2B 16 Dec 05:43:29 05:47:04 36° 97° (E) 05:50:37 145.730 - 145.750
STRAND 1 16 Dec 05:47:36 05:52:23 42° 67° (ENE) 05:57:11 437.568
CUTE 1.7 + AOD 2 16 Dec 05:48:22 05:50:23 13° 87° (E) 05:52:25 437.475
AO-85 16 Dec 05:53:08 05:57:52 78° 233° (SW) 06:02:55 145.980
XW-2F 16 Dec 05:53:54 05:57:36 44° 99° (E) 06:01:15 145.980 - 146.000
XW-2C 16 Dec 06:10:50 06:14:42 75° 102° (ESE) 06:18:32 145.795 - 145.815
FO-29 16 Dec 06:13:20 06:20:20 37° 60° (ENE) 06:27:14 435.910
YUBILEINY 16 Dec 06:13:31 06:17:10 13° 317° (NW) 06:20:51 435.215
AO-7 16 Dec 06:16:00 06:22:17 25° 316° (NW) 06:28:34 .
CUTE-I 16 Dec 06:40:22 06:45:44 90° 286° (WNW) 06:51:03 437.470
NO-84 16 Dec 06:48:44 06:51:46 68° 146° (SE) 06:55:02 435.350 FM
UWE-3 16 Dec 06:49:32 06:52:43 20° 92° (E) 06:55:58 435.000/436.395/437.385
LilacSat-2 16 Dec 06:49:46 06:53:24 38° 290° (WNW) 06:57:00 437.200
CUBEBUG 2 16 Dec 06:53:11 06:57:06 35° 97° (E) 07:01:06 437.445
SEEDS 16 Dec 06:56:01 07:00:00 37° 97° (E) 07:03:56 437.485
HO-68 16 Dec 06:57:29 07:04:33 58° 102° (ESE) 07:11:34 435.675
NUDT-PHONESAT 16 Dec 06:58:01 07:01:37 46° 289° (WNW) 07:05:13 437.300
XW-2D 16 Dec 07:01:47 07:05:11 30° 292° (WNW) 07:08:33 145.860 - 145.880
XW-2A 16 Dec 07:04:58 07:07:25 18° 93° (E) 07:09:51 145.665 - 145.685
KAITUO 1B 16 Dec 07:05:07 07:08:39 37° 291° (WNW) 07:12:09 145.475/437.950
AAUSAT CUBESAT 2 16 Dec 07:09:40 07:13:04 24° 93° (E) 07:16:26 437.432
ZACube-1 16 Dec 07:10:35 07:13:37 18° 91° (E) 07:16:40 437.345
O/OREOS (USA 219) 16 Dec 07:16:21 07:19:53 22° 103° (ESE) 07:23:26 437.305
XW-2B 16 Dec 07:18:01 07:21:03 22° 295° (WNW) 07:24:03 145.730 - 145.750
CUTE 1.7 + AOD 2 16 Dec 07:22:27 07:26:45 75° 286° (WNW) 07:31:01 437.475
STRAND 1 16 Dec 07:27:12 07:31:41 30° 265° (W) 07:36:11 437.568
Oscar 11 16 Dec 07:27:23 07:30:03 16° 89° (E) 07:32:43 .
XW-2F 16 Dec 07:28:42 07:31:24 19° 297° (WNW) 07:34:06 145.980 - 146.000
AO-85 16 Dec 07:35:20 07:37:40 13° 250° (WSW) 07:40:02 145.980
TIGRISAT 16 Dec 07:40:09 07:43:06 19° 61° (ENE) 07:46:03 435.000
AO-73 16 Dec 07:42:45 07:46:40 32° 96° (E) 07:50:40 145.935
UNISAT 6 16 Dec 07:43:36 07:46:51 21° 63° (ENE) 07:50:04 437.425
XW-2C 16 Dec 07:46:39 07:48:19 12° 301° (WNW) 07:49:59 145.795 - 145.815
FO-29 16 Dec 07:57:13 08:04:58 63° 260° (W) 08:12:42 435.910
CUTE-I 16 Dec 08:21:42 08:25:04 17° 306° (NW) 08:28:25 437.470
UWE-3 16 Dec 08:25:16 08:29:25 49° 289° (WNW) 08:33:39 435.000/436.395/437.385
NO-84 16 Dec 08:26:13 08:29:12 35° 347° (NNW) 08:32:26 435.350 FM
CUBEBUG 2 16 Dec 08:30:01 08:33:37 27° 294° (WNW) 08:37:17 437.445
SEEDS 16 Dec 08:32:01 08:35:31 25° 295° (WNW) 08:39:00 437.485
XW-2A 16 Dec 08:37:05 08:40:12 33° 291° (WNW) 08:43:19 145.665 - 145.685
AAUSAT CUBESAT 2 16 Dec 08:44:46 08:48:37 37° 292° (WNW) 08:52:26 437.432
HO-68 16 Dec 08:45:38 08:52:01 36° 302° (WNW) 08:58:22 435.675
ZACube-1 16 Dec 08:45:57 08:50:12 55° 288° (WNW) 08:54:31 437.345
O/OREOS (USA 219) 16 Dec 08:54:33 08:59:00 49° 302° (WNW) 09:03:27 437.305
CUTE 1.7 + AOD 2 16 Dec 09:00:50 09:01:48 11° 305° (NW) 09:02:46 437.475
Oscar 11 16 Dec 09:02:17 09:06:37 63° 287° (WNW) 09:10:54 .
Max Valier Satellite 16 Dec 09:14:33 09:17:47 27° 95° (E) 09:20:58 145.860
TIGRISAT 16 Dec 09:15:15 09:19:26 55° 259° (W) 09:23:37 435.000
AO-73 16 Dec 09:19:03 09:22:52 31° 293° (WNW) 09:26:45 145.935
UNISAT 6 16 Dec 09:19:11 09:23:18 46° 261° (W) 09:27:25 437.425
PRISM 16 Dec 09:22:15 09:26:20 64° 73° (ENE) 09:30:28 437.425
DELFI C3 16 Dec 09:28:13 09:32:06 55° 100° (E) 09:35:56 145.870
EO-79 16 Dec 09:34:47 09:36:55 14° 58° (ENE) 09:39:04 145.935-145.965
EO-88 16 Dec 09:37:54 09:41:15 33° 97° (E) 09:44:36 145.990 - 145.960
AIST 2D 16 Dec 09:40:13 09:43:22 31° 69° (ENE) 09:46:33 435.315
FO-29 16 Dec 09:47:26 09:51:25 14° 280° (W) 09:55:24 435.910
POLYITAN 1 16 Dec 09:57:03 10:00:14 22° 63° (ENE) 10:03:26 437.675
NO-84 16 Dec 10:03:56 10:07:03 32° 9° (N) 10:10:25 435.350 FM
nSIGHT-1 16 Dec 10:07:48 10:09:16 13° 136° (SE) 10:10:45 .
QB50P2 16 Dec 10:22:03 10:25:57 40° 69° (ENE) 10:29:53 145.880/145.840
DUCHIFAT 1 16 Dec 10:24:15 10:27:52 30° 66° (ENE) 10:31:31 145.980
HO-68 16 Dec 10:36:59 10:37:44 10° 325° (NW) 10:38:29 435.675
O/OREOS (USA 219) 16 Dec 10:38:28 10:39:33 11° 324° (NW) 10:40:37 437.305
Max Valier Satellite 16 Dec 10:48:21 10:51:33 27° 293° (WNW) 10:54:43 145.860
NANOSAT C BR1 16 Dec 10:51:16 10:55:22 63° 73° (ENE) 10:59:31 145.865
ISS 16 Dec 10:55:30 10:58:12 24° 143° (SE) 11:00:55 437.550
BUGSAT 1 16 Dec 10:57:54 11:00:40 18° 62° (ENE) 11:03:26 437.445
PRISM 16 Dec 10:59:41 11:02:01 15° 270° (W) 11:04:22 437.425
DELFI C3 16 Dec 11:03:56 11:06:27 16° 299° (WNW) 11:08:56 145.870
EO-79 16 Dec 11:07:55 11:12:06 78° 257° (WSW) 11:16:18 145.935-145.965
Gurwin Techsat 1B 16 Dec 11:09:55 11:13:13 17° 54° (NE) 11:16:30 435.225
EO-88 16 Dec 11:11:51 11:14:44 22° 295° (WNW) 11:17:35 145.990 - 145.960
AIST 2D 16 Dec 11:13:56 11:16:36 20° 267° (W) 11:19:18 435.315
ESTCUBE 1 16 Dec 11:26:55 11:31:26 59° 101° (E) 11:35:54 437.505/2401.250
POLYITAN 1 16 Dec 11:31:46 11:35:46 44° 261° (W) 11:39:47 437.675
LO-87 16 Dec 11:35:14 11:38:46 75° 285° (WNW) 11:42:18 145.935 - 145.965
SPROUT 16 Dec 11:40:51 11:44:11 22° 93° (E) 11:47:29 437.525
NO-84 16 Dec 11:41:05 11:44:40 79° 31° (NNE) 11:48:33 435.350 FM
nSIGHT-1 16 Dec 11:41:47 11:44:57 60° 154° (SSE) 11:48:08 .
AO-7 16 Dec 11:45:00 11:50:11 19° 37° (NE) 11:55:23 .
Oscar 19 16 Dec 11:49:25 11:54:11 40° 66° (ENE) 11:59:00 437.125/150
AO-91 16 Dec 11:52:51 11:57:07 36° 69° (ENE) 12:01:00 145.960
QB50P2 16 Dec 11:58:33 12:01:53 23° 267° (W) 12:05:15 145.880/145.840
DUCHIFAT 1 16 Dec 11:59:50 12:03:30 30° 264° (W) 12:07:12 145.980
YUBILEINY 16 Dec 12:17:05 12:24:40 30° 61° (ENE) 12:32:09 435.215
NANOSAT C BR1 16 Dec 12:29:10 12:31:30 15° 271° (W) 12:33:52 145.865
ISS 16 Dec 12:31:07 12:34:25 85° 343° (NNW) 12:37:42 437.550
BUGSAT 1 16 Dec 12:31:46 12:35:41 50° 260° (W) 12:39:36 437.445
Gurwin Techsat 1B 16 Dec 12:47:07 12:52:26 88° 75° (ENE) 12:57:48 435.225
VELOX 1 16 Dec 12:51:23 12:55:48 66° 103° (ESE) 13:00:09 145.980
ESTCUBE 1 16 Dec 13:04:34 13:07:49 20° 300° (WNW) 13:11:04 437.505/2401.250
ITAMSAT 1 16 Dec 13:08:05 13:11:17 17° 54° (NE) 13:14:28 435.822/435.867
RS-15 16 Dec 13:08:50 13:19:17 35° 105° (ESE) 13:29:36 29.354- 29.394
SPROUT 16 Dec 13:16:14 13:20:14 42° 291° (WNW) 13:24:14 437.525
nSIGHT-1 16 Dec 13:18:03 13:21:13 54° 354° (N) 13:24:24 .
M-CUBED/EXP-1 PRIME 16 Dec 13:18:41 13:22:30 28° 58° (ENE) 13:26:27 437.505
NO-84 16 Dec 13:18:43 13:21:41 22° 225° (SW) 13:24:48 435.350 FM
UKube-1 16 Dec 13:20:55 13:24:08 20° 92° (E) 13:27:19 .
Oscar 19 16 Dec 13:29:00 13:33:35 32° 265° (W) 13:38:13 437.125/150
AO-91 16 Dec 13:29:33 13:33:36 28° 264° (W) 13:37:20 145.960
AO-7 16 Dec 13:33:14 13:41:16 57° 61° (ENE) 13:49:22 .
50 SAT 16 Dec 13:37:57 13:41:00 45° 100° (E) 13:44:01 437.505
DX 1 16 Dec 13:40:29 13:44:43 48° 100° (E) 13:48:53 434.975-435.025
ISS 16 Dec 14:07:52 14:11:05 52° 1° (N) 14:14:19 437.550
BEESAT 16 Dec 14:11:11 14:13:00 12° 87° (E) 14:14:49 436.000
YUBILEINY 16 Dec 14:13:35 14:22:25 76° 265° (W) 14:31:08 435.215
VELOX 1 16 Dec 14:28:53 14:31:45 17° 301° (WNW) 14:34:37 145.980
Gurwin Techsat 1B 16 Dec 14:30:08 14:33:06 15° 273° (W) 14:36:06 435.225
ITUPSAT 1 16 Dec 14:39:33 14:43:14 22° 92° (E) 14:46:54 437.325
ITAMSAT 1 16 Dec 14:44:50 14:50:03 89° 73° (ENE) 14:55:17 435.822/435.867
M-CUBED/EXP-1 PRIME 16 Dec 14:52:27 14:56:40 43° 257° (WSW) 15:01:05 437.505
nSIGHT-1 16 Dec 14:54:28 14:57:40 67° 13° (NNE) 15:00:52 .
UKube-1 16 Dec 14:56:15 15:00:24 48° 291° (WNW) 15:04:31 .
SO-50 16 Dec 14:59:00 15:03:18 49° 122° (ESE) 15:07:40 436.795
DOVE 4 16 Dec 14:59:29 15:03:56 30° 65° (ENE) 15:08:15 437.250
CUBESAT XI-V 16 Dec 14:59:56 15:02:32 15° 87° (E) 15:05:06 437.345
MOZHAYETS 4 16 Dec 15:06:32 15:11:06 57° 101° (E) 15:15:39
50 SAT 16 Dec 15:11:07 15:12:34 13° 298° (WNW) 15:14:00 437.505
DX 1 16 Dec 15:17:16 15:20:36 22° 298° (WNW) 15:23:55 434.975-435.025
RS-15 16 Dec 15:18:12 15:30:36 85° 310° (NW) 15:42:49 29.354- 29.394
AO-7 16 Dec 15:26:36 15:34:18 41° 262° (W) 15:42:07 .
O/OREOS (USA 219) 16 Dec 15:42:48 15:45:33 16° 43° (NE) 15:48:17 437.305
ISS 16 Dec 15:44:27 15:47:45 85° 196° (SSW) 15:51:01 437.550
HO-68 16 Dec 15:46:10 15:50:33 18° 45° (NE) 15:54:57 435.675
BEESAT 16 Dec 15:46:42 15:51:29 87° 100° (E) 15:56:16 436.000
LilacSat-2 16 Dec 16:01:54 16:04:40 19° 63° (ENE) 16:07:28 437.200
NUDT-PHONESAT 16 Dec 16:08:21 16:10:25 14° 61° (ENE) 16:12:29 437.300
YUBILEINY 16 Dec 16:12:17 16:17:38 18° 287° (WNW) 16:23:00 435.215
XW-2D 16 Dec 16:12:47 16:15:49 23° 65° (ENE) 16:18:53 145.860 - 145.880
KAITUO 1B 16 Dec 16:15:33 16:18:10 18° 63° (ENE) 16:20:47 145.475/437.950
ITUPSAT 1 16 Dec 16:16:43 16:21:21 53° 291° (WNW) 16:25:59 437.325
CUTE-I 16 Dec 16:27:01 16:31:52 36° 64° (ENE) 16:36:44 437.470
ITAMSAT 1 16 Dec 16:27:26 16:30:13 14° 272° (W) 16:33:01 435.822/435.867
XW-2B 16 Dec 16:28:20 16:31:43 31° 68° (ENE) 16:35:08 145.730 - 145.750
nSIGHT-1 16 Dec 16:30:47 16:33:46 35° 212° (SSW) 16:36:43 .
CUBESAT XI-V 16 Dec 16:35:45 16:40:29 78° 286° (WNW) 16:45:09 437.345
DOVE 4 16 Dec 16:36:26 16:41:26 45° 262° (W) 16:46:17 437.250
XW-2F 16 Dec 16:38:11 16:41:42 38° 70° (ENE) 16:45:15 145.980 - 146.000
SO-50 16 Dec 16:39:55 16:43:56 32° 323° (NW) 16:48:02 436.795
KKS-1 16 Dec 16:40:19 16:44:01 25° 94° (E) 16:47:41 437.445
MOZHAYETS 4 16 Dec 16:44:27 16:47:52 21° 299° (WNW) 16:51:18
CUTE 1.7 + AOD 2 16 Dec 16:44:41 16:47:24 17° 60° (ENE) 16:50:07 437.475
XW-2C 16 Dec 16:55:26 16:59:11 64° 74° (ENE) 17:02:59 145.795 - 145.815
STARS 16 Dec 17:16:46 17:20:21 24° 94° (E) 17:23:55 437.465
O/OREOS (USA 219) 16 Dec 17:21:09 17:25:41 87° 65° (ENE) 17:30:09 437.305
ISS 16 Dec 17:21:24 17:23:52 20° 220° (SW) 17:26:20 437.550
BEESAT 16 Dec 17:25:52 17:28:37 15° 304° (NW) 17:31:22 436.000
HO-68 16 Dec 17:29:56 17:37:01 64° 67° (ENE) 17:44:06 435.675
RS-15 16 Dec 17:33:20 17:44:55 44° 339° (NNW) 17:56:11 29.354- 29.394
LilacSat-2 16 Dec 17:35:01 17:38:40 42° 262° (W) 17:42:22 437.200
NUDT-PHONESAT 16 Dec 17:40:11 17:43:49 57° 259° (W) 17:47:30 437.300
XW-2A 16 Dec 17:40:40 17:42:14 13° 62° (ENE) 17:43:49 145.665 - 145.685
XW-2D 16 Dec 17:46:23 17:49:50 33° 264° (W) 17:53:20 145.860 - 145.880
KAITUO 1B 16 Dec 17:48:14 17:51:50 44° 261° (W) 17:55:29 145.475/437.950
UWE-3 16 Dec 17:50:27 17:53:50 25° 65° (ENE) 17:57:14 435.000/436.395/437.385
SEEDS 16 Dec 17:51:06 17:55:07 43° 70° (ENE) 17:59:09 437.485
CUBEBUG 2 16 Dec 17:55:04 17:59:03 45° 70° (ENE) 18:03:01 437.445
XW-2B 16 Dec 18:02:49 18:05:55 24° 266° (W) 18:09:03 145.730 - 145.750
AAUSAT CUBESAT 2 16 Dec 18:03:19 18:06:50 27° 66° (ENE) 18:10:24 437.432
CUTE-I 16 Dec 18:06:55 18:11:53 38° 263° (W) 18:16:54 437.470
PCSat 16 Dec 18:07:54 18:13:08 52° 117° (ESE) 18:18:23 145.827
ZACube-1 16 Dec 18:10:20 18:13:33 22° 63° (ENE) 18:16:47 437.345
XW-2F 16 Dec 18:13:07 18:15:56 20° 268° (W) 18:18:47 145.980 - 146.000
CUBESAT XI-V 16 Dec 18:15:00 18:17:03 13° 305° (NW) 18:19:05 437.345
KKS-1 16 Dec 18:16:34 18:20:42 39° 293° (WNW) 18:24:48 437.445
CUTE 1.7 + AOD 2 16 Dec 18:18:32 18:22:45 64° 259° (W) 18:27:02 437.475
SO-50 16 Dec 18:23:35 18:25:48 13° 347° (NNW) 18:28:02 436.795
Oscar 11 16 Dec 18:25:52 18:29:05 21° 62° (ENE) 18:32:19 .
XW-2C 16 Dec 18:32:09 18:33:47 12° 272° (W) 18:35:25 145.795 - 145.815
AO-73 16 Dec 18:42:02 18:45:51 39° 69° (ENE) 18:49:45 145.935
STARS 16 Dec 18:52:45 18:56:49 40° 292° (WNW) 19:00:53 437.465
O/OREOS (USA 219) 16 Dec 19:02:38 19:04:22 12° 263° (W) 19:06:05 437.305
FO-29 16 Dec 19:04:44 19:09:20 19° 83° (E) 19:13:35 435.910
XW-2A 16 Dec 19:11:14 19:14:31 53° 260° (W) 19:17:51 145.665 - 145.685
HO-68 16 Dec 19:19:02 19:25:13 31° 267° (W) 19:31:27 435.675
UWE-3 16 Dec 19:26:21 19:30:10 36° 263° (W) 19:34:01 435.000/436.395/437.385
SEEDS 16 Dec 19:27:42 19:30:59 22° 268° (W) 19:34:17 437.485
STRAND 1 16 Dec 19:32:29 19:37:35 67° 103° (ESE) 19:42:38 437.568
CUBEBUG 2 16 Dec 19:32:54 19:35:55 19° 268° (W) 19:38:56 437.445
AAUSAT CUBESAT 2 16 Dec 19:38:23 19:42:11 34° 264° (W) 19:46:01 437.432
BEESAT 3 16 Dec 19:44:23 19:48:19 61° 124° (SE) 19:52:16 437.485
ZACube-1 16 Dec 19:45:42 19:49:37 41° 262° (W) 19:53:34 437.345
RS-15 16 Dec 19:49:51 20:01:05 40° 13° (NNE) 20:11:49 29.354- 29.394
PCSat 16 Dec 19:51:47 19:56:44 35° 318° (NW) 20:01:44 145.827
Max Valier Satellite 16 Dec 19:57:14 20:00:08 22° 66° (ENE) 20:03:03 145.860
Oscar 11 16 Dec 20:00:43 20:04:54 50° 261° (W) 20:09:08 .
SO-50 16 Dec 20:06:03 20:08:12 13° 12° (NNE) 20:10:22 436.795
AO-85 16 Dec 20:15:32 20:15:52 10° 108° (ESE) 20:16:13 145.980
DELFI C3 16 Dec 20:16:44 20:20:37 54° 72° (ENE) 20:24:31 145.870
AO-73 16 Dec 20:18:59 20:22:15 22° 267° (W) 20:25:34 145.935
EO-88 16 Dec 20:19:10 20:22:16 27° 67° (ENE) 20:25:24 145.990 - 145.960
BEESAT 2 16 Dec 20:30:19 20:34:14 53° 123° (ESE) 20:38:11 435.950
FO-29 16 Dec 20:48:28 20:55:32 88° 286° (WNW) 21:01:41 435.910
ESTCUBE 1 16 Dec 20:56:14 20:58:24 13° 56° (NE) 21:00:33 437.505/2401.250
TIGRISAT 16 Dec 21:02:36 21:06:00 22° 93° (E) 21:09:26 435.000
UNISAT 6 16 Dec 21:06:24 21:10:04 26° 94° (E) 21:13:46 437.425
STRAND 1 16 Dec 21:12:33 21:16:18 21° 302° (WNW) 21:20:02 437.568
BEESAT 3 16 Dec 21:22:54 21:26:10 24° 325° (NW) 21:29:26 437.485
Max Valier Satellite 16 Dec 21:30:30 21:33:48 32° 264° (W) 21:37:08 145.860
PCSat 16 Dec 21:38:59 21:41:48 14° 343° (NNW) 21:44:37 145.827
SO-50 16 Dec 21:46:01 21:50:07 30° 36° (NE) 21:54:14 436.795
AO-85 16 Dec 21:51:29 21:55:25 83° 127° (SE) 21:59:39 145.980
EO-88 16 Dec 21:52:47 21:55:52 26° 265° (W) 21:58:58 145.990 - 145.960
DELFI C3 16 Dec 21:53:13 21:55:40 16° 270° (W) 21:58:08 145.870
RS-15 16 Dec 22:03:57 22:15:58 71° 44° (NE) 22:27:18 29.354- 29.394
BEESAT 2 16 Dec 22:08:45 22:12:12 26° 323° (NW) 22:15:40 435.950
LO-87 16 Dec 22:14:26 22:17:58 79° 74° (ENE) 22:21:30 145.935 - 145.965
VELOX 1 16 Dec 22:18:20 22:20:42 14° 57° (ENE) 22:23:03 145.980
ESTCUBE 1 16 Dec 22:29:58 22:34:30 86° 77° (ENE) 22:39:04 437.505/2401.250
AIST 2D 16 Dec 22:33:55 22:36:46 22° 94° (E) 22:39:35 435.315
PRISM 16 Dec 22:34:24 22:38:27 57° 101° (E) 22:42:27 437.425
FO-29 16 Dec 22:34:28 22:39:33 22° 309° (NW) 22:44:15 435.910
SPROUT 16 Dec 22:37:42 22:41:19 28° 65° (ENE) 22:44:58 437.525
TIGRISAT 16 Dec 22:38:45 22:42:53 44° 290° (WNW) 22:47:04 435.000
UNISAT 6 16 Dec 22:42:51 22:46:52 38° 292° (WNW) 22:50:57 437.425
EO-79 16 Dec 22:49:54 22:51:48 13° 88° (E) 22:53:42 145.935-145.965
DX 1 16 Dec 23:07:24 23:08:26 11° 54° (NE) 23:09:27 434.975-435.025
POLYITAN 1 16 Dec 23:12:33 23:15:49 21° 93° (E) 23:19:05 437.675
PCSat 16 Dec 23:25:30 23:27:41 12° 10° (N) 23:29:50 145.827
SO-50 16 Dec 23:26:18 23:30:52 58° 236° (SW) 23:35:30 436.795
AO-85 16 Dec 23:33:16 23:36:24 21° 330° (NNW) 23:39:42 145.980
QB50P2 16 Dec 23:37:59 23:42:00 41° 98° (E) 23:46:01 145.880/145.840
DUCHIFAT 1 16 Dec 23:39:00 23:42:43 30° 96° (E) 23:46:25 145.980
BEESAT 2 16 Dec 23:50:44 23:51:16 10° 346° (NNW) 23:51:47 435.950
VELOX 1 16 Dec 23:52:03 23:56:30 85° 253° (WSW) 00:00:59 145.980
NANOSAT C BR1 17 Dec 00:06:42 00:10:53 66° 102° (ESE) 00:15:04 145.865
AIST 2D 17 Dec 00:06:50 00:09:57 29° 292° (WNW) 00:13:03 435.315
50 SAT 17 Dec 00:07:36 00:10:19 27° 68° (ENE) 00:13:02 437.505
BUGSAT 1 17 Dec 00:09:56 00:12:30 16° 91° (E) 00:15:05 437.445
ESTCUBE 1 17 Dec 00:10:07 00:11:57 12° 273° (W) 00:13:46 437.505/2401.250
PRISM 17 Dec 00:10:37 00:13:19 17° 300° (WNW) 00:16:00 437.425
SPROUT 17 Dec 00:13:18 00:17:07 33° 263° (W) 00:20:59 437.525
RS-15 17 Dec 00:17:04 00:27:48 44° 250° (WSW) 00:38:03 29.354- 29.394
UKube-1 17 Dec 00:18:48 00:22:33 29° 65° (ENE) 00:26:18 .
EO-79 17 Dec 00:23:51 00:28:05 74° 285° (WNW) 00:32:16 145.935-145.965
MOZHAYETS 4 17 Dec 00:38:01 00:40:09 13° 56° (NE) 00:42:19
DX 1 17 Dec 00:39:27 00:43:48 71° 73° (ENE) 00:48:11 434.975-435.025
POLYITAN 1 17 Dec 00:47:46 00:51:47 43° 291° (WNW) 00:55:47 437.675
Gurwin Techsat 1B 17 Dec 00:59:36 01:03:59 25° 92° (E) 01:08:20 435.225
PCSat 17 Dec 01:08:34 01:13:04 26° 35° (NE) 01:17:32 145.827
QB50P2 17 Dec 01:14:14 01:17:35 23° 297° (WNW) 01:20:55 145.880/145.840
DUCHIFAT 1 17 Dec 01:14:40 01:18:22 30° 293° (WNW) 01:22:02 145.980
AO-91 17 Dec 01:14:52 01:18:05 34° 98° (E) 01:21:11 145.960
AO-85 17 Dec 01:17:23 01:18:30 11° 355° (N) 01:19:38 145.980
BEESAT 17 Dec 01:20:29 01:24:14 24° 61° (ENE) 01:28:00 436.000
YUBILEINY 17 Dec 01:24:38 01:31:43 28° 79° (E) 01:38:48 435.215
VELOX 1 17 Dec 01:32:41 01:33:38 11° 274° (W) 01:34:36 145.980
AO-7 17 Dec 01:33:35 01:35:55 11° 81° (E) 01:38:14 .
Oscar 19 17 Dec 01:35:26 01:40:37 65° 102° (ESE) 01:45:47 437.125/150
50 SAT 17 Dec 01:39:56 01:42:16 19° 266° (W) 01:44:38 437.505
NANOSAT C BR1 17 Dec 01:43:33 01:46:07 16° 300° (WNW) 01:48:42 145.865
BUGSAT 1 17 Dec 01:44:14 01:48:11 53° 288° (WNW) 01:52:08 437.445
ITUPSAT 1 17 Dec 01:49:50 01:54:14 40° 67° (ENE) 01:58:41 437.325
UKube-1 17 Dec 01:54:34 01:58:29 33° 263° (W) 02:02:26 .
EO-79 17 Dec 02:02:20 02:03:04 10° 305° (NW) 02:03:47 145.935-145.965
CUBESAT XI-V 17 Dec 02:06:37 02:10:17 23° 62° (ENE) 02:14:00 437.345
MOZHAYETS 4 17 Dec 02:12:03 02:16:36 86° 75° (ENE) 02:21:12
DX 1 17 Dec 02:18:06 02:20:29 14° 271° (W) 02:22:51 434.975-435.025
BEESAT 3 17 Dec 02:20:09 02:23:23 24° 35° (NE) 02:26:35 437.485
Gurwin Techsat 1B 17 Dec 02:39:04 02:44:14 53° 291° (WNW) 02:49:23 435.225
PCSat 17 Dec 02:51:39 02:57:06 82° 237° (WSW) 03:02:31 145.827
AO-91 17 Dec 02:52:00 02:54:22 17° 297° (WNW) 02:56:39 145.960
ITAMSAT 1 17 Dec 02:54:08 02:58:10 22° 92° (E) 03:02:09 435.822/435.867
BEESAT 17 Dec 02:57:06 03:01:43 51° 260° (W) 03:06:22 436.000
AO-85 17 Dec 02:58:14 03:00:50 15° 21° (NNE) 03:03:30 145.980
BEESAT 2 17 Dec 03:06:47 03:10:02 22° 34° (NE) 03:13:14 435.950
Oscar 19 17 Dec 03:15:33 03:19:30 22° 301° (WNW) 03:23:27 437.125/150
YUBILEINY 17 Dec 03:18:49 03:27:39 77° 282° (WNW) 03:36:33 435.215
AO-7 17 Dec 03:22:27 03:30:40 55° 102° (ESE) 03:38:49 .
ITUPSAT 1 17 Dec 03:28:06 03:32:11 28° 265° (W) 03:36:18 437.325
KKS-1 17 Dec 03:41:50 03:45:59 39° 67° (ENE) 03:50:08 437.445
CUBESAT XI-V 17 Dec 03:42:50 03:47:21 50° 261° (W) 03:51:57 437.345
MOZHAYETS 4 17 Dec 03:52:30 03:54:24 12° 273° (W) 03:56:19
BEESAT 3 17 Dec 03:57:20 04:01:13 58° 236° (WSW) 04:05:02 437.485
M-CUBED/EXP-1 PRIME 17 Dec 04:00:52 04:05:24 77° 108° (ESE) 04:09:39 437.505
STARS 17 Dec 04:16:49 04:20:50 37° 67° (ENE) 04:24:52 437.465
Gurwin Techsat 1B 17 Dec 04:21:56 04:23:03 11° 312° (NW) 04:24:10 435.225
